Location: Unspecified
(42.0334°N, 93.6656°W)
Time: 04:06:53
(UTC-05:00)

Amateur Radio Satellites - All Passes

Search period start: 31 October 2014 03:36
Search period end: 01 November 2014 03:36
Location: Unspecified, 42.0334°N, 93.6656°W

Satellite Date Start Highest point End Downlink Frequencies (MHz)
Time Altitude Azimuth
Oscar 19 31 Oct 03:44:14 03:48:53 36° 292° (WNW) 03:53:31 437.125 CW, 437.150 USB
AO-7 31 Oct 04:00:48 04:05:43 17° 89° (E) 04:10:37 29.400 - 29.500 MHz
RS-15 31 Oct 04:11:56 04:21:09 29° 26° (NNE) 04:30:35 29.354 - 29.394 USB, Beacon 29.352 USB
AO-27 31 Oct 04:19:11 04:24:06 42° 291° (WNW) 04:28:58 436.795 MHz FM
Gurwin Techsat 1B 31 Oct 04:31:49 04:37:04 60° 288° (WNW) 04:42:16 435.225 FM
Oscar 16 31 Oct 04:32:47 04:35:26 14° 300° (WNW) 04:38:05 437.025 USB, Beacon 2401.1428
JAS-1B 31 Oct 04:38:26 04:44:05 27° 297° (WNW) 04:50:31 435.800 - 435.900 CW/SSB
TMSAT-1 31 Oct 04:38:27 04:43:44 70° 287° (WNW) 04:48:59 436.925 FM
Sapphire 31 Oct 04:50:20 04:54:13 20° 317° (NW) 04:58:07 437.095 MHz 1200 baud AX-25 AFSK
OPAL 31 Oct 04:55:27 05:00:08 38° 67° (ENE) 05:04:47 ?
Uribyol 2 31 Oct 05:04:24 05:07:43 17° 299° (WNW) 05:11:01 436.500 FM
AO-Echo 31 Oct 05:11:47 05:13:57 13° 302° (WNW) 05:16:06 ?
ITAMSAT 1 31 Oct 05:12:27 05:15:31 16° 300° (WNW) 05:18:34 435.822 SSB
PCSat 31 Oct 05:13:44 05:16:25 14° 323° (NW) 05:19:07 145.825 MHz
Uosat F 31 Oct 05:21:52 05:26:42 44° 99° (E) 05:31:29 435.120 FM
JAS-2 31 Oct 05:41:55 05:48:38 30° 92° (E) 05:55:08 435.800 - 435.900 CW/SSB, 435.910 FM
Saudisat 1A 31 Oct 05:44:27 05:48:08 27° 114° (ESE) 05:51:50 436.775 MHz
PANSAT 31 Oct 05:51:03 05:51:41 10° 175° (S) 05:52:19 not established
AO-7 31 Oct 05:51:14 05:59:37 84° 108° (ESE) 06:07:59 29.400 - 29.500 MHz
RS-15 31 Oct 06:24:34 06:35:46 74° 54° (NE) 06:47:26 29.354 - 29.394 USB, Beacon 29.352 USB
OPAL 31 Oct 06:34:49 06:39:05 27° 263° (W) 06:43:20 ?
Hamsat 31 Oct 06:48:17 06:52:25 51° 99° (E) 06:56:32 145.90 MHz
STRAND 1 31 Oct 06:50:49 06:55:48 54° 71° (ENE) 07:00:50 ?
Uosat F 31 Oct 07:01:16 07:05:11 23° 296° (WNW) 07:09:06 435.120 FM
MaSat-1 31 Oct 07:14:33 07:15:08 11° 51° (NE) 07:15:42 437.345 MHz
Saudisat 1A 31 Oct 07:23:33 07:27:34 34° 311° (NW) 07:31:37 436.775 MHz
JAS-2 31 Oct 07:26:17 07:34:00 61° 290° (WNW) 07:41:30 435.800 - 435.900 CW/SSB, 435.910 FM
AO-7 31 Oct 07:45:15 07:51:28 24° 308° (NW) 07:57:42 29.400 - 29.500 MHz
SO-67 31 Oct 07:52:34 07:55:41 31° 97° (E) 07:58:47 435.3500 MHz FM
Hamsat 31 Oct 08:25:33 08:27:57 15° 296° (WNW) 08:30:20 145.90 MHz
STRAND 1 31 Oct 08:31:46 08:35:19 19° 268° (W) 08:38:53 ?
RS-15 31 Oct 08:37:52 08:47:13 32° 255° (WSW) 08:56:57 29.354 - 29.394 USB, Beacon 29.352 USB
HO-68 31 Oct 08:39:07 08:42:09 13° 87° (E) 08:45:09 435.675 MHz FM
MaSat-1 31 Oct 08:48:40 08:50:33 20° 251° (WSW) 08:52:22 437.345 MHz
JAS-2 31 Oct 09:13:49 09:17:28 14° 309° (NW) 09:21:06 435.800 - 435.900 CW/SSB, 435.910 FM
SO-67 31 Oct 09:26:22 09:28:23 15° 293° (WNW) 09:30:24 435.3500 MHz FM
ISS 31 Oct 09:39:37 09:41:18 13° 130° (SE) 09:43:00 145.800 FM
KITSAT 1 31 Oct 09:45:09 09:49:29 16° 100° (E) 09:53:49 435.175 FM
Sapphire 31 Oct 10:10:40 10:13:20 14° 37° (NE) 10:15:59 437.095 MHz 1200 baud AX-25 AFSK
HO-68 31 Oct 10:23:41 10:30:56 78° 105° (ESE) 10:38:06 435.675 MHz FM
UKube-1 31 Oct 10:29:42 10:33:42 34° 98° (E) 10:37:39 145.840 MHz, 145.915 MHz
PCSat 31 Oct 10:31:38 10:35:31 19° 43° (NE) 10:39:22 145.825 MHz
ZACube-1 31 Oct 10:39:07 10:41:59 18° 92° (E) 10:44:48 437.345 MHz
Oscar 11 31 Oct 11:04:34 11:08:54 85° 103° (ESE) 11:13:13 145.825 FM, Beacon 2401.500 USB
SO-50 31 Oct 11:11:50 11:15:52 34° 115° (ESE) 11:20:01 436.795 FM
ISS 31 Oct 11:14:16 11:17:35 74° 327° (NNW) 11:20:55 145.800 FM
FUNcube-1 31 Oct 11:21:05 11:25:12 52° 100° (E) 11:29:14 145.950 - 145.970 MHz USB
KITSAT 1 31 Oct 11:35:32 11:43:36 80° 118° (ESE) 11:51:42 435.175 FM
Sapphire 31 Oct 11:52:24 11:57:50 66° 58° (ENE) 12:03:13 437.095 MHz 1200 baud AX-25 AFSK
UKube-1 31 Oct 12:06:17 12:09:41 23° 294° (WNW) 12:13:04 145.840 MHz, 145.915 MHz
HO-68 31 Oct 12:12:37 12:17:52 23° 304° (NW) 12:23:07 435.675 MHz FM
PCSat 31 Oct 12:14:07 12:19:34 78° 243° (WSW) 12:24:58 145.825 MHz
ZACube-1 31 Oct 12:14:39 12:18:33 38° 289° (WNW) 12:22:23 437.345 MHz
Oscar 16 31 Oct 12:32:22 12:35:22 16° 60° (ENE) 12:38:22 437.025 USB, Beacon 2401.1428
ISS 31 Oct 12:52:10 12:54:43 20° 345° (NNW) 12:57:16 145.800 FM
SO-50 31 Oct 12:52:24 12:56:25 30° 314° (NW) 13:00:33 436.795 FM
FUNcube-1 31 Oct 12:58:54 13:01:08 14° 297° (WNW) 13:03:20 145.950 - 145.970 MHz USB
Uribyol 2 31 Oct 13:05:38 13:08:17 14° 59° (ENE) 13:10:58 436.500 FM
AO-Echo 31 Oct 13:07:32 13:10:42 17° 61° (ENE) 13:13:54 ?
ITAMSAT 1 31 Oct 13:13:10 13:16:11 16° 60° (ENE) 13:19:12 435.822 SSB
Oscar 19 31 Oct 13:22:18 13:27:07 42° 70° (ENE) 13:31:56 437.125 CW, 437.150 USB
KITSAT 1 31 Oct 13:33:03 13:39:52 29° 321° (NW) 13:46:44 435.175 FM
JAS-1B 31 Oct 13:34:27 13:39:58 51° 70° (ENE) 13:45:31 435.800 - 435.900 CW/SSB
UOSAT-12 31 Oct 13:35:25 13:40:03 86° 122° (ESE) 13:44:48 437.025 FM, 437.400 FM
Sapphire 31 Oct 13:37:11 13:40:41 18° 255° (WSW) 13:44:10 437.095 MHz 1200 baud AX-25 AFSK
AO-27 31 Oct 13:58:34 14:03:23 39° 68° (ENE) 14:08:14 436.795 MHz FM
Oscar 16 31 Oct 14:09:00 14:14:08 71° 258° (WSW) 14:19:17 437.025 USB, Beacon 2401.1428
Saudisat 1A 31 Oct 14:10:12 14:14:01 27° 46° (NE) 14:17:49 436.775 MHz
Gurwin Techsat 1B 31 Oct 14:14:24 14:18:56 30° 66° (ENE) 14:23:29 435.225 FM
TMSAT-1 31 Oct 14:21:05 14:25:21 26° 65° (ENE) 14:29:38 436.925 FM
ISS 31 Oct 14:30:07 14:32:20 16° 6° (N) 14:34:32 145.800 FM
Uribyol 2 31 Oct 14:41:50 14:47:04 82° 256° (WSW) 14:52:20 436.500 FM
AO-Echo 31 Oct 14:43:56 14:48:52 65° 259° (W) 14:54:01 ?
ITAMSAT 1 31 Oct 14:49:50 14:55:02 74° 257° (WSW) 15:00:18 435.822 SSB
AO-7 31 Oct 15:00:05 15:06:41 28° 54° (NE) 15:13:18 29.400 - 29.500 MHz
Oscar 19 31 Oct 15:02:32 15:06:36 24° 266° (W) 15:10:42 437.125 CW, 437.150 USB
UOSAT-12 31 Oct 15:17:51 15:20:50 17° 322° (NW) 15:23:52 437.025 FM, 437.400 FM
JAS-1B 31 Oct 15:27:00 15:31:06 20° 268° (W) 15:35:11 435.800 - 435.900 CW/SSB
KITSAT 1 31 Oct 15:35:21 15:38:34 13° 349° (N) 15:41:48 435.175 FM
AO-27 31 Oct 15:38:38 15:42:59 26° 265° (W) 15:47:22 436.795 MHz FM
Saudisat 1A 31 Oct 15:49:35 15:53:39 36° 244° (WSW) 15:57:41 436.775 MHz
Gurwin Techsat 1B 31 Oct 15:53:53 15:58:45 37° 263° (W) 16:03:40 435.225 FM
JAS-2 31 Oct 15:57:37 16:00:39 14° 50° (NE) 16:03:49 435.800 - 435.900 CW/SSB, 435.910 FM
TMSAT-1 31 Oct 16:00:00 16:05:01 43° 262° (W) 16:10:05 436.925 FM
ISS 31 Oct 16:06:36 16:09:44 36° 26° (NNE) 16:12:51 145.800 FM
Uosat F 31 Oct 16:35:23 16:40:21 64° 73° (ENE) 16:45:22 435.120 FM
AO-7 31 Oct 16:50:29 16:58:45 73° 254° (WSW) 17:07:04 29.400 - 29.500 MHz
KITSAT 1 31 Oct 17:33:43 17:38:14 16° 21° (NNE) 17:42:44 435.175 FM
JAS-2 31 Oct 17:37:56 17:44:11 68° 72° (ENE) 17:51:18 435.800 - 435.900 CW/SSB, 435.910 FM
Hamsat 31 Oct 17:42:00 17:45:51 37° 71° (ENE) 17:49:43 145.90 MHz
ISS 31 Oct 17:43:22 17:46:23 32° 223° (SW) 17:49:24 145.800 FM
Uosat F 31 Oct 18:16:44 18:19:35 15° 269° (W) 18:22:26 435.120 FM
SO-67 31 Oct 18:27:06 18:28:32 12° 66° (ENE) 18:29:59 435.3500 MHz FM
OPAL 31 Oct 18:43:10 18:48:08 76° 105° (ESE) 18:53:04 ?
AO-7 31 Oct 18:49:18 18:52:53 13° 273° (W) 18:56:28 29.400 - 29.500 MHz
STRAND 1 31 Oct 19:02:09 19:05:33 18° 92° (E) 19:08:54 ?
HO-68 31 Oct 19:10:12 19:12:58 13° 48° (NE) 19:15:43 435.675 MHz FM
Hamsat 31 Oct 19:19:03 19:21:56 18° 267° (W) 19:24:49 145.90 MHz
JAS-2 31 Oct 19:25:18 19:29:58 21° 273° (W) 19:35:03 435.800 - 435.900 CW/SSB, 435.910 FM
KITSAT 1 31 Oct 19:28:29 19:36:08 43° 48° (NE) 19:43:43 435.175 FM
SO-50 31 Oct 19:42:31 19:47:03 38° 49° (NE) 19:51:37 436.795 FM
SO-67 31 Oct 19:57:54 20:01:08 39° 262° (W) 20:04:24 435.3500 MHz FM
OPAL 31 Oct 20:23:48 20:26:24 14° 303° (WNW) 20:28:59 ?
UOSAT-12 31 Oct 20:25:54 20:28:35 15° 36° (NE) 20:31:15 437.025 FM, 437.400 FM
STRAND 1 31 Oct 20:40:02 20:45:06 57° 288° (WNW) 20:50:06 ?
RS-15 31 Oct 20:49:07 20:59:13 44° 109° (ESE) 21:09:13 29.354 - 29.394 USB, Beacon 29.352 USB
HO-68 31 Oct 20:52:13 20:59:14 61° 68° (ENE) 21:06:17 435.675 MHz FM
SO-50 31 Oct 21:23:19 21:27:30 29° 246° (WSW) 21:31:42 436.795 FM
KITSAT 1 31 Oct 21:23:58 21:31:37 49° 248° (WSW) 21:39:15 435.175 FM
UKube-1 31 Oct 21:25:31 21:29:23 32° 69° (ENE) 21:33:17 145.840 MHz, 145.915 MHz
ZACube-1 31 Oct 21:36:11 21:39:12 18° 65° (ENE) 21:42:10 437.345 MHz
Oscar 11 31 Oct 21:59:43 22:04:00 69° 75° (ENE) 22:08:18 145.825 FM, Beacon 2401.500 USB
UOSAT-12 31 Oct 22:04:45 22:09:30 81° 56° (NE) 22:14:09 437.025 FM, 437.400 FM
FUNcube-1 31 Oct 22:17:25 22:21:44 46° 72° (ENE) 22:25:58 145.950 - 145.970 MHz USB
MaSat-1 31 Oct 22:22:36 22:26:25 55° 113° (ESE) 22:29:52 437.345 MHz
HO-68 31 Oct 22:41:33 22:47:21 26° 266° (W) 22:53:11 435.675 MHz FM
RS-15 31 Oct 23:00:31 23:11:14 57° 312° (NW) 23:22:02 29.354 - 29.394 USB, Beacon 29.352 USB
UKube-1 31 Oct 23:02:07 23:05:36 23° 265° (W) 23:09:07 145.840 MHz, 145.915 MHz
ZACube-1 31 Oct 23:10:52 23:15:14 47° 261° (W) 23:19:33 437.345 MHz
Oscar 11 31 Oct 23:39:45 23:40:38 11° 271° (W) 23:41:31 145.825 FM, Beacon 2401.500 USB
UOSAT-12 31 Oct 23:47:18 23:48:56 12° 253° (WSW) 23:50:35 437.025 FM, 437.400 FM
FUNcube-1 31 Oct 23:55:19 23:58:18 17° 268° (W) 00:01:16 145.950 - 145.970 MHz USB
MaSat-1 01 Nov 00:00:23 00:01:59 12° 307° (NW) 00:03:32 437.345 MHz
PCSat 01 Nov 01:16:45 01:18:45 12° 102° (ESE) 01:20:45 145.825 MHz
JAS-1B 01 Nov 01:17:18 01:21:47 16° 91° (E) 01:26:38 435.800 - 435.900 CW/SSB
RS-15 01 Nov 01:18:17 01:26:42 24° 343° (NNW) 01:35:16 29.354 - 29.394 USB, Beacon 29.352 USB
Oscar 19 01 Nov 01:34:58 01:37:36 14° 90° (E) 01:40:14 437.125 CW, 437.150 USB
AO-27 01 Nov 02:12:56 02:15:19 13° 89° (E) 02:17:40 436.795 MHz FM
Oscar 16 01 Nov 02:20:27 02:25:15 39° 98° (E) 02:30:02 437.025 USB, Beacon 2401.1428
Gurwin Techsat 1B 01 Nov 02:33:03 02:33:44 10° 87° (E) 02:34:25 435.225 FM
Sapphire 01 Nov 02:34:29 02:39:45 56° 115° (ESE) 02:45:04 437.095 MHz 1200 baud AX-25 AFSK
AO-Echo 01 Nov 02:50:47 02:55:49 42° 98° (E) 03:00:46 ?
Uribyol 2 01 Nov 02:54:32 02:59:16 34° 97° (E) 03:03:57 436.500 FM
PCSat 01 Nov 02:55:55 03:01:20 89° 299° (WNW) 03:06:48 145.825 MHz
ITAMSAT 1 01 Nov 03:02:33 03:07:26 38° 98° (E) 03:12:15 435.822 SSB
JAS-1B 01 Nov 03:05:42 03:12:54 86° 105° (ESE) 03:21:33 435.800 - 435.900 CW/SSB
Oscar 19 01 Nov 03:12:20 03:17:26 70° 286° (WNW) 03:22:31 437.125 CW, 437.150 USB
